Sexton Summit, OR

10:00 AM PDT on March 29, 2017 (GMT -0700)
Sexton Summit

Weather History for KSXT - January, 2014

Change the Weather History Date:

Wednesday, January 29, 2014

  Actual Average Record
Temperature  
Mean Temperature 40 °F -  
Max Temperature 46 °F 39 °F 54 °F (2015)
Min Temperature 35 °F 30 °F 19 °F (2002)
Degree Days  
Heating Degree Days 24    
Moisture  
Dew Point 39 °F    
Average Humidity 96    
Maximum Humidity 100    
Minimum Humidity 86    
Precipitation  
Precipitation 0.04 in - - ()
Sea Level Pressure  
Sea Level Pressure 30.01 in    
Wind  
Wind Speed 11 mph (SW)    
Max Wind Speed 15 mph    
Max Gust Speed 28 mph    
Visibility 5 miles    
Events Fog , Rain    
Averages and records for this station are not official NWS values.
T = Trace of Precipitation, MM = Missing Value Source: NWS Daily Summary

Daily Weather History Graph

Daily Weather History Graph

Search for Another Location

Airport or City:

Trip Planner

Search our weather history database for the weather conditions in past years. The results will help you decide how hot, cold, wet, or windy it might be!

Date:

Astronomy

Jan. 29, 2014 Rise Set
Actual Time 7:30 AM PST 5:23 PM PST
Civil Twilight 7:00 AM PST 5:53 PM PST
Nautical Twilight 6:26 AM PST 6:27 PM PST
Astronomical Twilight 5:53 AM PST 7:00 PM PST
Moon 6:12 AM PST 4:29 PM PST
Length of Visible Light 10h 53m
Length of Day
9h 52m
Waning Crescent, 2% of the Moon is Illuminated
Jan 29
Waning Crescent
Jan 30
New
Feb 6
First Quarter
Feb 14
Full
Feb 22
Last Quarter

Hourly Weather History & Observations

Time (PST) Temp. Windchill Dew Point Humidity Pressure Visibility Wind Dir Wind Speed Gust Speed Precip Events Conditions
12:56 AM 46.9 °F - 46.9 °F 100% 30.04 in 0.2 mi SSW 15.0 mph 24.2 mph 0.01 in Fog Fog
1:56 AM 46.0 °F 40.2 °F 46.0 °F 100% 30.03 in 0.2 mi SSW 12.7 mph 23.0 mph 0.00 in Fog , Rain Light Rain
2:56 AM 46.0 °F 39.9 °F 46.0 °F 100% 30.00 in 0.2 mi SSW 13.8 mph 25.3 mph 0.00 in Fog , Rain Light Rain
3:56 AM 46.0 °F 39.6 °F 46.0 °F 100% 29.99 in 0.2 mi SW 15.0 mph 25.3 mph 0.01 in Fog Fog
4:56 AM 45.0 °F 38.9 °F 45.0 °F 100% 29.99 in 0.2 mi SW 12.7 mph 19.6 mph 0.00 in Fog , Rain Light Rain
5:09 AM 45.0 °F 40.1 °F 45.0 °F 100% 30.01 in 0.2 mi WSW 9.2 mph 19.6 mph 0.00 in Fog Fog
5:18 AM 45.0 °F 39.3 °F 45.0 °F 100% 30.01 in 0.5 mi SW 11.5 mph 17.3 mph 0.00 in Fog Fog
5:28 AM 45.0 °F 40.1 °F 45.0 °F 100% 30.00 in 0.2 mi SW 9.2 mph - 0.00 in Fog Fog
5:56 AM 44.1 °F 39.5 °F 44.1 °F 100% 29.99 in 0.2 mi West 8.1 mph - 0.00 in Fog Fog
6:39 AM 43.0 °F 38.2 °F 43.0 °F 100% 30.00 in 0.8 mi WSW 8.1 mph - 0.00 in Rain Light Rain
6:47 AM 42.1 °F 36.1 °F 42.1 °F 100% 30.00 in 1.2 mi WSW 10.4 mph 18.4 mph 0.00 in   Overcast
6:50 AM 42.8 °F 38.0 °F 42.8 °F 100% 30.00 in 2.0 mi West 8.1 mph 18.4 mph 0.00 in   Overcast
6:53 AM 42.8 °F 38.0 °F 42.8 °F 100% 30.00 in 1.8 mi West 8.1 mph 18.4 mph 0.00 in   Overcast
6:56 AM 42.1 °F 36.1 °F 42.1 °F 100% 30.00 in 1.5 mi WSW 10.4 mph 18.4 mph 0.00 in   Overcast
7:03 AM 42.1 °F 36.6 °F 42.1 °F 100% 30.01 in 1.0 mi WSW 9.2 mph 18.4 mph N/A   Overcast
7:21 AM 42.1 °F 37.7 °F 42.1 °F 100% 30.01 in 0.5 mi Variable 6.9 mph - 0.01 in Fog , Rain Light Rain
7:28 AM 42.1 °F 38.4 °F 42.1 °F 100% 30.02 in 0.5 mi Variable 5.8 mph - 0.01 in Fog , Rain Light Rain
7:38 AM 42.1 °F 37.7 °F 42.1 °F 100% 30.02 in 0.2 mi Variable 6.9 mph - 0.01 in Fog , Rain Light Rain
7:56 AM 42.1 °F 38.4 °F 42.1 °F 100% 30.00 in 0.5 mi Variable 5.8 mph 17.3 mph 0.02 in Fog , Rain Light Rain
8:12 AM 42.1 °F 37.7 °F 42.1 °F 100% 30.01 in 0.2 mi Variable 6.9 mph 18.4 mph 0.00 in Fog Fog
8:56 AM 41.0 °F 34.7 °F 41.0 °F 100% 30.01 in 0.2 mi SW 10.4 mph 20.7 mph 0.00 in Fog Fog
9:24 AM 39.9 °F 32.5 °F 39.9 °F 100% 30.03 in 1.0 mi SW 12.7 mph 20.7 mph N/A   Overcast
9:29 AM 39.9 °F 33.9 °F 39.9 °F 100% 30.04 in 2.5 mi SW 9.2 mph 24.2 mph N/A   Overcast
9:36 AM 39.0 °F 32.3 °F 39.0 °F 100% 30.04 in 6.0 mi WSW 10.4 mph 27.6 mph N/A   Overcast
9:43 AM 39.0 °F 31.4 °F 39.0 °F 100% 30.04 in 2.5 mi SW 12.7 mph 27.6 mph N/A   Overcast
9:56 AM 39.0 °F 31.8 °F 39.0 °F 100% 30.05 in 10.0 mi SW 11.5 mph 20.7 mph N/A   Overcast
10:38 AM 37.9 °F 30.9 °F 37.0 °F 97% 30.04 in 10.0 mi SW 10.4 mph 21.9 mph N/A   Overcast
10:48 AM 39.9 °F 32.5 °F 37.9 °F 93% 30.04 in 10.0 mi SW 12.7 mph 24.2 mph N/A   Overcast
10:56 AM 39.9 °F 32.9 °F 37.0 °F 89% 30.03 in 10.0 mi SW 11.5 mph 24.2 mph N/A   Mostly Cloudy
11:27 AM 41.0 °F 34.3 °F 37.9 °F 89% 30.05 in 10.0 mi SW 11.5 mph 20.7 mph N/A   Overcast
11:56 AM 41.0 °F 34.7 °F 37.9 °F 89% 30.04 in 10.0 mi SSW 10.4 mph 23.0 mph N/A   Overcast
12:56 PM 39.9 °F 32.9 °F 37.0 °F 89% 30.01 in 10.0 mi SW 11.5 mph - N/A   Overcast
1:56 PM 39.9 °F 35.8 °F 37.9 °F 93% 30.01 in 10.0 mi SSW 5.8 mph - 0.00 in   Overcast
2:03 PM 39.9 °F 34.5 °F 37.9 °F 93% 30.01 in 10.0 mi SSW 8.1 mph - N/A   Overcast
2:31 PM 39.9 °F 33.4 °F 37.9 °F 93% 30.00 in 10.0 mi SW 10.4 mph 18.4 mph N/A   Overcast
2:39 PM 39.9 °F 33.9 °F 37.9 °F 93% 30.00 in 10.0 mi SSW 9.2 mph 19.6 mph N/A   Overcast
2:56 PM 39.9 °F 33.4 °F 37.0 °F 89% 30.00 in 10.0 mi SW 10.4 mph 18.4 mph N/A   Overcast
3:05 PM 39.9 °F 33.4 °F 37.9 °F 93% 30.00 in 10.0 mi SW 10.4 mph 16.1 mph N/A   Overcast
3:28 PM 39.9 °F 34.5 °F 37.0 °F 89% 30.00 in 10.0 mi SSW 8.1 mph - N/A   Overcast
3:56 PM 39.9 °F 35.1 °F 37.0 °F 89% 29.99 in 10.0 mi Variable 6.9 mph 20.7 mph N/A   Mostly Cloudy
4:06 PM 39.9 °F 35.8 °F 36.0 °F 86% 29.99 in 10.0 mi Variable 5.8 mph 20.7 mph N/A   Mostly Cloudy
4:56 PM 39.0 °F 32.3 °F 35.1 °F 86% 29.99 in 10.0 mi SSW 10.4 mph 19.6 mph N/A   Overcast
5:19 PM 37.9 °F 30.0 °F 36.0 °F 93% 29.98 in 10.0 mi SW 12.7 mph 20.7 mph N/A   Overcast
5:56 PM 37.0 °F 28.9 °F 36.0 °F 96% 29.98 in 10.0 mi SW 12.7 mph 20.7 mph N/A   Mostly Cloudy
6:42 PM 37.0 °F 29.8 °F 36.0 °F 96% 29.98 in 10.0 mi SW 10.4 mph 19.6 mph N/A   Overcast
6:54 PM 37.4 °F 29.8 °F 35.6 °F 93% 29.98 in 10.0 mi SW 11.5 mph - N/A   Overcast
6:56 PM 37.0 °F 28.9 °F 36.0 °F 96% 30.00 in 10.0 mi SW 12.7 mph - N/A   Overcast
7:45 PM 37.0 °F 31.6 °F 35.1 °F 93% 29.98 in 10.0 mi Variable 6.9 mph 17.3 mph N/A   Overcast
7:56 PM 37.0 °F 31.6 °F 34.0 °F 89% 30.00 in 10.0 mi WSW 6.9 mph - N/A   Overcast
8:22 PM 36.0 °F 31.1 °F 34.0 °F 93% 29.98 in 10.0 mi SW 5.8 mph - N/A   Overcast
8:56 PM 36.0 °F 29.6 °F 34.0 °F 93% 30.01 in 10.0 mi SW 8.1 mph - N/A   Overcast
9:56 PM 36.0 °F 29.0 °F 33.1 °F 89% 30.02 in 10.0 mi SW 9.2 mph - N/A   Overcast
10:05 PM 36.0 °F 30.3 °F 33.1 °F 89% 29.99 in 10.0 mi SW 6.9 mph - N/A   Overcast
10:56 PM 35.1 °F 26.9 °F 34.0 °F 96% 30.01 in 10.0 mi SSW 11.5 mph - N/A   Overcast
11:13 PM 35.1 °F 26.9 °F 35.1 °F 100% 29.98 in 2.0 mi South 11.5 mph - N/A   Overcast
11:15 PM 35.1 °F 27.4 °F 35.1 °F 100% 29.98 in 1.0 mi South 10.4 mph - N/A   Overcast
11:20 PM 35.1 °F 27.4 °F 35.1 °F 100% 29.98 in 0.5 mi South 10.4 mph - N/A Fog Fog
11:28 PM 35.1 °F 26.9 °F 35.1 °F 100% 29.98 in 0.2 mi South 11.5 mph - 0.00 in Fog , Rain Light Rain
11:56 PM 35.1 °F 26.4 °F 35.1 °F 100% 30.01 in 0.2 mi South 12.7 mph - 0.00 in Fog Fog